Temperature
8 8 7 8 8 9 9 9 10 12 13 12 12 13 14 15 16 16 17 17 17 17 17 17 17 17 17 16 16 16 16 16 16 15 15 15 15 15 15 15 14 14 14 14
7 7 8 9 9 9 9 9 10 11 12 12 12 13 14 15 15 16 17 17 17 17 17 17 17 17 17 16 16 16 16 16 16 15 15 15 15 15 15 15 14 14 14 14
7 8 9 9 8 9 9 8 9 10 11 11 11 11 13 14 15 16 16 17 17 17 17 17 17 17 16 16 16 16 16 16 15 15 15 15 15 15 14 14 15 14 14 14
7 8 8 8 8 9 8 9 10 10 9 9 10 10 12 13 14 15 16 16 17 17 17 17 17 16 16 16 16 16 16 16 15 15 15 15 15 15 15 15 15 15 14 14
7 8 8 8 8 9 9 10 10 10 9 9 10 10 11 13 13 14 15 16 16 17 17 17 16 16 16 16 16 16 16 16 15 15 15 15 15 15 15 15 15 14 14 14
7 8 8 8 8 9 9 9 9 9 8 8 9 10 11 13 14 15 15 16 16 16 16 16 16 16 15 15 15 15 15 15 15 15 15 15 14 14 14 14 14 14 14 14
7 7 8 8 8 8 8 7 7 7 7 8 11 11 11 14 15 15 15 16 16 16 16 15 15 15 15 15 15 15 15 15 15 15 15 14 14 14 14 14 14 14 14 13
6 6 8 8 8 7 7 7 7 7 8 9 11 11 12 14 14 15 15 15 15 15 15 15 15 14 14 14 14 14 14 14 14 14 14 14 14 14 14 13 13 13 13 13
7 7 8 8 8 8 7 7 8 7 8 8 10 12 12 13 13 13 14 14 14 14 14 14 14 14 13 13 14 14 14 14 14 14 14 14 14 13 13 13 13 13 13 12
7 6 8 8 8 8 8 8 7 7 7 8 10 11 11 12 12 13 13 13 13 13 13 13 13 13 12 12 13 13 13 13 13 13 13 13 13 13 13 13 13 12 12 12
7 6 7 7 7 7 7 7 8 8 8 8 8 10 12 12 12 12 12 13 13 12 12 12 11 11 11 12 12 12 12 12 13 12 12 12 12 12 12 12 12 11 11 11
7 7 6 7 8 8 8 8 8 7 7 8 8 9 12 11 11 12 12 12 12 11 11 11 11 10 10 11 11 11 11 11 11 11 11 11 11 11 11 11 11 11 10 10
7 6 6 6 7 7 7 8 8 8 7 7 8 9 11 11 11 11 11 11 11 11 10 10 10 10 10 10 10 10 10 10 10 10 10 10 10 10 10 10 10 10 10 9
7 6 6 7 7 7 7 8 8 8 7 7 8 9 10 10 10 10 11 11 10 10 10 10 9 9 9 9 9 9 9 10 10 10 10 10 10 10 9 9 9 9 9 9
7 6 7 7 8 8 8 8 8 8 8 7 8 9 10 10 10 10 10 10 10 10 10 9 9 9 9 9 9 9 9 9 9 9 9 9 9 9 9 8 8 8 8 7
6 6 7 7 8 8 8 8 8 8 8 8 8 8 10 10 10 10 10 10 10 9 9 9 9 9 8 8 9 9 9 9 9 9 9 9 8 8 8 8 7 7 7 7
5 6 6 6 8 8 7 7 8 8 8 8 8 8 9 9 9 9 9 9 9 9 9 8 8 8 8 8 8 8 8 8 8 8 8 8 8 8 7 7 6 6 6 6
5 5 6 6 7 6 7 8 8 8 8 8 8 8 9 8 9 9 8 8 8 8 8 8 8 8 8 8 8 8 8 8 8 8 8 7 7 7 7 6 6 5 5 5
5 5 5 6 6 7 8 8 8 7 7 7 7 7 8 8 8 8 7 7 7 7 7 7 7 7 7 8 8 8 8 8 7 7 7 7 7 6 6 5 5 5 4 4
5 5 5 6 6 6 6 7 7 7 6 6 6 6 7 7 6 6 6 6 7 7 7 7 7 7 7 7 7 7 7 7 7 7 7 6 6 6 5 5 4 4 4 4
5 5 5 5 5 5 6 7 7 6 5 5 5 5 5 5 5 5 5 5 6 6 6 6 6 7 6 7 7 7 7 6 6 6 6 6 5 5 5 4 4 3 3 3
5 5 5 5 5 5 5 6 5 4 5 5 4 4 4 4 4 4 5 5 5 5 6 6 6 6 6 6 6 6 6 6 6 5 5 5 5 4 4 4 3 3 2 2
5 5 4 4 5 5 5 4 4 4 4 3 3 3 4 4 4 4 4 4 5 5 5 5 5 5 5 5 5 5 5 5 5 5 5 4 4 4 3 3 3 2 2 2
5 5 4 4 4 4 4 3 3 3 2 2 2 3 3 3 3 3 3 4 4 4 4 4 4 5 5 4 4 4 4 4 4 4 4 4 3 3 3 2 2 2 2 1
4 4 3 3 4 4 3 3 2 2 2 2 2 2 2 2 2 2 2 3 3 3 3 4 4 4 4 4 4 4 4 4 3 3 3 3 2 2 2 2 2 1 1 1
3 3 2 2 2 2 2 2 1 1 1 1 1 1 1 1 2 2 2 2 2 3 3 3 3 3 3 3 3 3 3 3 3 3 2 2 2 2 1 1 1 1 1 1
Wind_Speed
3 2 3 4 5 3 2 3 6 6 4 8 11 11 9 8 9 9 9 10 9 9 8 8 7 7 6 5 6 8 8 8 7 6 6 5 5 4 4 4 6 8 8 9
2 2 2 2 3 3 3 4 5 4 4 4 7 10 9 10 10 9 9 9 10 9 7 7 7 8 7 7 6 6 8 8 8 6 6 4 4 4 4 4 5 7 7 8
1 1 1 3 4 5 4 4 4 3 2 4 5 7 11 11 11 10 9 9 9 10 9 8 9 8 7 7 7 6 7 8 8 7 5 4 4 3 3 4 4 5 7 7
1 1 1 2 2 4 3 3 4 4 3 3 6 4 9 12 13 13 12 10 9 9 9 8 9 9 8 7 6 6 6 7 7 8 7 7 6 5 5 5 5 5 6 6
1 2 2 3 3 3 1 1 2 4 3 3 5 5 6 11 13 15 14 13 11 10 9 8 8 9 8 7 6 5 6 6 7 8 8 7 6 5 4 4 6 5 4 5
1 1 1 1 1 1 1 0 1 1 1 3 8 7 5 9 14 14 13 12 10 9 8 7 7 8 7 7 6 5 6 6 6 7 7 7 7 6 5 5 5 4 3 3
2 2 2 1 2 2 2 2 2 2 3 5 8 7 6 6 6 7 8 9 8 7 7 6 7 8 8 8 7 6 7 6 6 6 6 6 6 6 6 5 5 4 3 3
1 1 4 3 2 2 4 2 2 2 3 2 5 6 4 2 2 2 2 3 4 5 6 6 7 7 7 8 7 6 7 6 6 6 5 5 5 4 3 4 4 3 3 3
2 1 3 3 2 1 2 3 3 3 3 2 5 5 4 2 3 3 2 3 3 4 5 5 5 6 6 7 7 7 7 6 5 5 5 4 5 4 4 4 3 3 3 3
3 0 2 3 2 2 2 2 2 2 2 2 5 6 4 6 6 6 5 4 3 4 4 5 5 5 4 5 5 6 6 6 5 5 5 4 5 5 5 5 5 4 4 3
3 1 2 3 3 4 4 3 3 3 3 2 2 1 4 3 3 4 3 3 3 4 4 4 4 5 5 5 4 5 5 6 5 5 5 5 5 5 5 5 5 4 3 3
2 1 1 2 2 2 3 4 3 2 4 3 2 2 4 5 4 4 4 4 3 4 4 4 5 5 5 5 5 5 6 6 5 5 6 5 5 6 5 5 4 4 4 3
2 1 1 1 2 2 3 5 5 4 4 4 3 2 1 4 4 4 3 2 3 4 4 4 5 6 6 5 5 5 6 6 6 6 6 6 5 5 5 5 5 4 4 3
2 2 2 2 1 2 3 5 6 5 4 5 4 4 3 1 1 2 2 1 1 2 3 3 4 5 5 5 6 6 6 6 6 6 6 6 5 5 5 5 5 4 4 3
2 2 2 5 5 4 5 6 6 7 7 6 7 6 5 3 2 2 2 2 1 2 3 3 3 4 6 6 6 6 6 6 6 6 6 6 6 5 5 5 5 4 4 3
3 3 4 3 3 3 4 5 7 7 8 8 9 9 6 4 3 2 2 2 2 2 2 3 3 4 5 6 6 6 6 6 7 6 6 6 6 6 5 5 4 4 4 3
4 4 3 2 2 2 2 3 4 3 3 4 6 7 6 5 3 3 2 1 1 1 1 2 3 3 4 5 6 7 6 7 7 6 6 6 6 6 5 5 5 4 4 3
4 5 3 3 3 1 0 4 4 2 3 4 5 7 7 5 4 4 4 3 3 2 2 1 1 2 3 4 5 6 6 7 7 6 6 6 6 6 5 5 4 4 3 3
5 3 3 2 2 2 1 3 5 3 3 8 8 9 10 7 4 4 7 6 4 3 3 2 2 1 2 4 5 6 6 6 6 6 6 7 7 6 6 5 5 4 4 3
4 4 3 3 2 1 3 5 6 3 1 9 10 10 10 9 4 4 8 7 6 5 4 4 3 3 3 3 4 5 5 5 5 6 6 6 6 6 6 6 5 4 4 4
1 2 3 4 2 0 4 7 5 2 3 8 9 9 8 6 4 5 7 7 6 5 5 4 4 3 3 3 4 3 3 4 4 5 5 5 5 5 5 5 4 5 5 4
1 2 2 2 2 1 7 6 4 4 6 7 8 8 7 6 5 6 6 6 6 5 5 5 4 4 3 3 3 2 2 3 4 5 4 5 5 5 5 5 5 5 5 5
1 1 2 1 1 2 5 4 5 6 6 7 7 8 8 7 6 6 5 4 5 5 4 4 3 3 3 3 3 2 2 3 4 4 4 4 5 4 5 6 6 5 5 5
1 2 2 3 2 3 4 5 7 7 7 8 8 8 8 7 7 6 4 4 4 4 4 3 3 2 2 3 3 2 2 2 3 3 4 4 5 5 5 5 5 5 6 5
3 2 3 3 3 4 3 6 8 8 8 9 9 8 7 7 7 6 4 3 2 3 3 3 2 1 1 2 2 1 1 2 2 3 3 4 5 5 5 5 5 6 6 6
2 1 1 2 3 5 6 7 9 9 9 9 9 9 8 7 7 6 4 3 2 2 2 2 2 2 1 1 1 1 0 1 2 3 3 3 4 4 4 4 3 5 6 8
Wind_Direction
177 187 201 197 205 233 244 228 218 216 192 205 219 228 224 227 234 229 218 211 213 213 201 184 174 160 161 170 171 167 167 169 161 161 163 164 171 165 153 153 164 172 176 176
160 218 226 235 216 224 236 239 238 229 187 213 234 235 231 228 229 234 227 215 211 210 206 186 169 161 166 172 173 168 164 163 164 166 166 162 159 165 166 158 170 178 178 177
177 112 173 207 206 207 228 244 230 223 201 231 245 245 228 230 230 234 233 224 217 207 202 189 176 165 163 171 172 174 168 165 164 161 152 147 143 146 165 173 179 184 185 183
153 222 210 194 212 206 221 235 234 220 199 225 213 235 227 220 222 225 223 221 221 214 203 194 180 167 165 169 169 170 166 164 161 159 161 165 173 179 186 179 179 178 181 181
152 161 195 206 223 241 208 275 240 219 224 254 219 237 244 215 216 216 214 212 215 209 200 188 179 166 160 157 157 161 160 161 160 164 169 175 182 182 172 166 171 176 174 173
168 167 265 232 204 245 158 65 329 271 232 241 215 218 249 214 213 208 205 204 205 195 191 184 167 153 151 146 147 155 159 162 158 163 170 178 181 175 170 174 171 171 168 168
164 167 173 189 170 163 172 158 168 184 204 232 205 213 243 231 210 198 193 192 192 179 174 172 161 156 154 153 157 163 166 166 163 163 170 176 179 177 182 177 173 169 170 173
165 152 166 177 200 166 187 212 234 212 199 216 197 221 235 212 126 119 137 162 169 162 162 165 163 156 154 157 162 165 165 164 164 163 163 158 153 156 157 148 148 157 158 160
347 73 133 159 188 171 165 221 259 297 272 218 217 220 205 176 145 142 155 167 169 156 152 152 147 147 153 159 166 168 163 159 159 154 144 143 138 136 133 124 120 119 108 110
336 21 152 151 158 221 238 271 252 249 266 237 214 223 218 183 181 174 169 168 163 151 143 141 143 145 144 147 150 154 155 151 140 133 134 135 127 124 123 119 113 107 106 109
317 311 152 170 205 202 196 229 248 262 273 276 223 244 11 95 111 125 138 132 126 126 137 139 137 135 130 129 133 135 135 130 126 124 117 114 110 107 106 107 110 111 109 109
303 311 236 221 227 254 236 235 237 262 286 274 267 276 3 47 59 80 86 95 97 111 118 128 135 134 135 138 138 138 136 130 127 123 116 114 110 107 106 106 103 97 95 92
327 291 273 212 194 209 236 238 243 261 287 282 274 250 49 65 65 71 82 101 122 129 132 140 147 151 152 152 150 143 137 134 128 124 122 119 116 114 113 112 106 99 97 96
316 275 264 271 264 212 234 237 238 233 250 275 262 256 268 305 3 33 38 51 124 147 160 163 158 156 154 154 152 147 139 134 133 130 130 128 122 118 114 111 106 102 100 101
322 291 284 287 284 268 261 256 247 243 249 263 284 291 296 313 323 333 323 296 244 205 192 178 168 162 158 154 149 144 138 135 133 131 130 127 120 115 114 112 111 109 105 104
324 298 297 285 266 263 271 271 259 256 262 269 285 293 310 328 346 326 298 274 264 239 202 180 167 160 160 157 153 148 144 138 135 137 137 132 129 127 128 128 126 124 121 116
316 314 311 291 286 279 294 287 259 258 289 290 290 303 326 333 338 344 343 356 322 276 214 174 170 167 164 160 155 156 150 139 139 144 144 142 141 141 143 141 138 140 137 126
295 317 301 294 305 255 232 15 355 332 331 334 325 336 346 350 353 10 12 23 18 26 34 44 106 150 158 150 145 144 144 145 150 154 154 151 150 151 149 148 152 149 139 139
226 282 302 297 277 251 115 7 356 344 356 14 4 359 354 348 355 15 27 31 27 31 37 34 33 86 126 139 140 140 146 149 155 163 164 160 159 159 159 162 160 151 145 148
204 239 272 289 293 306 11 354 343 327 16 18 6 357 351 353 354 2 7 16 22 27 33 32 31 48 71 107 125 140 151 155 168 168 162 157 160 164 167 166 159 153 154 161
238 241 251 269 260 313 357 334 337 347 353 357 1 358 360 359 346 333 353 10 17 20 21 28 40 51 56 79 108 129 142 160 153 139 142 150 155 159 160 159 157 156 157 158
289 286 273 281 254 271 359 5 20 348 343 357 357 355 353 347 344 349 355 5 10 16 19 23 33 40 45 64 92 111 130 126 120 130 143 151 153 157 157 157 161 161 161 167
281 322 309 288 280 2 16 21 2 355 350 349 347 343 342 339 339 341 347 357 5 13 18 22 33 35 35 48 80 105 105 108 122 139 155 162 161 162 164 167 170 170 174 183
325 352 299 291 310 356 9 13 10 360 346 338 336 335 337 330 328 328 336 349 358 3 6 12 23 34 28 33 55 94 124 135 148 166 176 176 172 174 177 177 178 182 190 195
291 315 288 277 318 337 6 3 348 340 338 336 334 331 329 322 319 320 322 335 347 350 350 358 0 1 6 21 43 63 98 141 167 183 191 187 184 183 187 190 194 199 204 200
228 247 285 291 351 322 314 330 331 329 329 329 326 326 327 323 315 316 315 323 328 328 334 331 332 339 346 356 29 75 96 179 194 199 198 193 190 190 190 193 207 214 213 215
Height
1477 1479 1478 1477 1479 1479 1480 1480 1480 1477 1476 1479 1480 1480 1479 1479 1480 1481 1482 1485 1488 1490 1493 1496 1499 1502 1505 1508 1511 1513 1516 1519 1522 1526 1529 1532 1535 1538 1540 1543 1545 1548 1549 1551
1479 1480 1478 1477 1478 1479 1481 1483 1482 1479 1477 1479 1480 1479 1477 1477 1477 1478 1479 1481 1484 1487 1490 1493 1496 1498 1502 1505 1508 1511 1513 1516 1519 1523 1526 1529 1532 1535 1537 1540 1542 1544 1546 1548
1479 1480 1478 1478 1480 1480 1481 1484 1483 1482 1480 1480 1482 1482 1477 1474 1475 1476 1477 1478 1481 1483 1486 1489 1492 1495 1498 1502 1505 1508 1510 1513 1516 1519 1523 1526 1529 1531 1534 1536 1538 1541 1543 1544
1479 1478 1478 1479 1480 1480 1483 1481 1481 1482 1486 1487 1484 1488 1475 1471 1471 1471 1472 1474 1477 1480 1483 1486 1489 1491 1494 1498 1502 1505 1508 1511 1514 1516 1519 1521 1524 1527 1529 1532 1534 1537 1538 1540
1479 1479 1479 1481 1481 1480 1481 1480 1481 1482 1485 1488 1485 1487 1475 1466 1467 1466 1467 1469 1473 1476 1479 1482 1485 1488 1491 1495 1498 1501 1504 1507 1510 1513 1516 1518 1521 1524 1526 1528 1530 1532 1534 1535
1480 1480 1480 1480 1482 1482 1482 1483 1483 1484 1488 1493 1482 1483 1475 1463 1460 1460 1462 1465 1468 1472 1476 1479 1481 1484 1488 1491 1494 1498 1501 1504 1507 1510 1512 1515 1517 1520 1522 1524 1526 1528 1529 1531
1480 1480 1481 1481 1483 1484 1484 1489 1492 1493 1494 1488 1472 1474 1469 1455 1452 1454 1457 1460 1464 1468 1472 1475 1478 1481 1484 1487 1490 1494 1497 1500 1503 1506 1509 1511 1514 1516 1518 1520 1522 1523 1525 1526
1482 1483 1480 1481 1482 1484 1485 1488 1492 1491 1488 1480 1470 1471 1462 1452 1451 1452 1455 1458 1461 1465 1468 1471 1474 1477 1480 1483 1487 1490 1493 1496 1499 1502 1505 1507 1510 1512 1514 1516 1518 1519 1520 1521
1481 1482 1479 1480 1482 1484 1485 1488 1486 1488 1480 1481 1473 1461 1457 1451 1452 1453 1455 1457 1460 1462 1465 1469 1472 1474 1477 1480 1483 1486 1489 1492 1495 1498 1500 1503 1505 1507 1510 1512 1513 1515 1516 1517
1484 1484 1481 1481 1483 1485 1486 1484 1486 1488 1485 1480 1470 1463 1460 1455 1454 1454 1456 1458 1459 1462 1464 1467 1469 1472 1474 1477 1479 1482 1485 1488 1490 1493 1495 1498 1500 1503 1505 1507 1508 1509 1511 1512
1484 1485 1484 1483 1484 1483 1485 1485 1483 1483 1480 1481 1476 1470 1455 1453 1453 1454 1456 1458 1460 1462 1464 1466 1468 1470 1472 1474 1476 1479 1481 1484 1486 1489 1491 1494 1496 1498 1500 1502 1503 1505 1506 1507
1485 1484 1486 1482 1480 1479 1479 1479 1481 1485 1482 1476 1476 1473 1456 1455 1455 1456 1457 1459 1460 1462 1463 1465 1467 1468 1470 1472 1474 1476 1478 1480 1483 1485 1488 1490 1492 1494 1496 1498 1499 1500 1501 1502
1485 1485 1487 1484 1484 1482 1480 1478 1477 1479 1481 1479 1477 1473 1457 1457 1457 1458 1459 1460 1461 1462 1463 1464 1465 1467 1469 1470 1472 1474 1475 1478 1480 1482 1485 1487 1489 1490 1492 1494 1495 1496 1497 1498
1485 1484 1485 1483 1478 1478 1478 1477 1476 1478 1481 1477 1471 1467 1461 1460 1459 1460 1460 1460 1461 1461 1462 1463 1465 1466 1467 1469 1470 1472 1473 1475 1478 1480 1482 1484 1485 1487 1488 1490 1491 1492 1493 1494
1485 1483 1479 1477 1474 1474 1474 1474 1473 1474 1474 1475 1468 1464 1461 1460 1460 1460 1460 1460 1460 1461 1461 1462 1463 1464 1465 1467 1468 1470 1471 1473 1475 1477 1479 1481 1483 1484 1485 1487 1487 1489 1490 1490
1485 1484 1479 1476 1472 1472 1472 1471 1471 1471 1470 1469 1467 1464 1460 1459 1459 1459 1459 1459 1459 1459 1460 1461 1462 1463 1464 1465 1466 1467 1469 1471 1473 1475 1477 1478 1480 1481 1482 1483 1484 1485 1486 1486
1487 1484 1481 1478 1472 1472 1475 1471 1469 1468 1467 1467 1467 1465 1460 1459 1459 1459 1458 1458 1458 1458 1459 1459 1460 1461 1462 1463 1464 1465 1467 1469 1471 1473 1474 1476 1477 1478 1479 1480 1481 1482 1482 1483
1489 1486 1483 1479 1476 1479 1476 1468 1467 1467 1466 1466 1465 1463 1461 1460 1459 1458 1458 1458 1458 1458 1457 1458 1458 1458 1459 1460 1462 1463 1465 1467 1468 1470 1471 1473 1474 1475 1476 1477 1478 1479 1479 1479
1488 1487 1485 1481 1479 1474 1471 1470 1469 1469 1469 1468 1467 1465 1463 1461 1458 1458 1458 1458 1457 1457 1456 1456 1456 1457 1457 1458 1459 1461 1463 1464 1466 1467 1469 1470 1471 1472 1473 1474 1474 1475 1475 1476
1486 1487 1487 1482 1480 1480 1476 1472 1469 1471 1471 1472 1469 1467 1465 1462 1462 1463 1460 1459 1457 1456 1455 1455 1455 1455 1456 1456 1457 1459 1460 1461 1463 1464 1466 1467 1468 1469 1470 1470 1471 1471 1472 1472
1486 1485 1485 1483 1481 1478 1477 1473 1470 1475 1477 1474 1471 1469 1467 1466 1467 1465 1461 1459 1458 1456 1455 1454 1454 1454 1454 1455 1456 1456 1457 1459 1460 1462 1463 1464 1465 1465 1466 1467 1467 1468 1468 1469
1485 1485 1484 1482 1481 1484 1478 1475 1478 1480 1476 1474 1472 1470 1468 1466 1464 1463 1461 1459 1457 1456 1455 1454 1453 1453 1453 1454 1454 1454 1455 1456 1458 1459 1459 1460 1461 1462 1462 1463 1464 1464 1465 1465
1484 1485 1484 1484 1484 1481 1479 1479 1480 1478 1476 1474 1472 1470 1468 1465 1464 1462 1460 1459 1457 1456 1455 1454 1453 1452 1452 1452 1453 1453 1453 1454 1455 1455 1456 1457 1457 1458 1459 1459 1460 1460 1461 1461
1484 1483 1483 1481 1479 1480 1479 1479 1478 1477 1476 1474 1471 1469 1467 1464 1462 1460 1459 1457 1456 1455 1454 1453 1452 1451 1451 1451 1450 1451 1451 1451 1452 1452 1453 1453 1454 1454 1455 1456 1456 1457 1457 1458
1485 1484 1483 1481 1480 1479 1478 1479 1478 1476 1474 1471 1469 1467 1465 1462 1460 1459 1457 1456 1454 1453 1452 1451 1450 1449 1449 1448 1448 1448 1448 1448 1448 1449 1449 1449 1450 1451 1451 1452 1453 1453 1454 1454
1484 1484 1484 1483 1482 1482 1479 1477 1476 1474 1471 1469 1466 1463 1461 1460 1457 1456 1454 1453 1452 1451 1450 1449 1448 1447 1447 1446 1446 1446 1445 1445 1445 1445 1445 1446 1446 1447 1447 1448 1449 1449 1450 1450